Flag for Norway Weather past 2 weeks in Kvernaland, Norway

Now
43 °F

Low clouds.


Feels Like: 39 °F
Forecast: 32 / 38 °F
Wind: 7 mph from Southwest

Location: Stavanger / Sola

Current Time: Jan 28, 2015 at 5:35:55 AM

Latest Report: Jan 28, 2015 at 5:00 AM


Visibility: 4 mi

Pressure: 29.38 "Hg

Humidity: 94%

Dew point: 42 °F

Location of KvernalandLocation

Historic Weather in Kvernaland — Graph

°F

Kvernaland temperature yesterday

Maximum temperature yesterday: 45 °F (at 7:00 PM)
Minimum temperature yesterday: 33 °F (at 4:00 AM)
Average temperature yesterday: 39 °F

Past Weeks' High & Low Weather Summary

 TemperatureHumidityPressure
High46 °F (Jan 26, 3:00 AM)98% (Jan 26, 3:00 AM)30.24 "Hg (Jan 26, 3:00 AM)
Low23 °F (Jan 22, 7:00 AM)48% (Jan 21, 3:00 PM)28.61 "Hg (Jan 16, 3:00 AM)
Average38 °F79%29.72 "Hg
* Reported Jan 13 3:00 AM — Jan 28 3:00 AM, Kvernaland, Weather by CustomWeather, © 2014

Note: Actual official high and low records may vary slightly from our data, if they occured in-between our weather recording intervals... More about our weather records

Advertising

Kvernaland weather history for previous 24 hours

 ConditionsComfort  
Time TempWeatherWind HumidityBarometerVisibility
3:00 AM
Jan 28
44 °FLight rain. Low clouds.8 mph96%29.50 "Hg3 mi
2:00 AM44 °FDrizzle. Low clouds.7 mph96%29.57 "Hg4 mi
1:00 AM44 °FLight rain. Low clouds.6 mph96%29.62 "Hg6 mi
12:00 AM43 °FLight rain. Overcast.6 mph96%29.66 "Hg4 mi
11:00 PM
Jan 27
44 °FRain showers. Overcast.6 mph96%29.71 "Hg4 mi
10:00 PM44 °FDrizzle. Low clouds.7 mph97%29.75 "Hg2 mi
9:00 PM44 °FRain showers. Dense fog.6 mph98%29.78 "Hg1 mi
8:00 PM44 °FFog.6 mph98%29.81 "Hg2 mi
7:00 PM45 °FLow clouds.6 mph98%29.83 "Hg2 mi
6:00 PM44 °FDrizzle. Low clouds.6 mph98%29.84 "Hg1 mi
5:00 PM44 °FDrizzle. Low clouds.6 mph98%29.87 "Hg1 mi
4:00 PM44 °FSprinkles. Overcast.5 mph98%29.89 "Hg2 mi
1:00 PM38 °FLow clouds.2 mph94%29.94 "Hg6 mi
12:00 PM36 °FOvercast.3 mph94%29.96 "Hg7 mi
11:00 AM36 °FPassing clouds.2 mph94%29.96 "Hg7 mi
10:00 AM35 °FFog.2 mph94%29.97 "Hg8 mi
9:00 AM34 °FScattered clouds.2 mph95%29.96 "Hg6 mi
8:00 AM35 °FRain showers. Overcast.2 mph95%29.95 "Hg6 mi
7:00 AM33 °FPassing clouds.2 mph95%29.95 "Hg7 mi
6:00 AM34 °FOvercast.2 mph96%29.95 "Hg7 mi
5:00 AM35 °FRain showers. Passing clouds.1 mph95%29.94 "Hg11 mi
Weather by CustomWeather, © 2014

See weather overviewHow to use our weather pages